Location: Unnamed
(48.6007°N, 2.4808°E)
Time: 09:52:50
(UTC+02:00)

PCSat - Pass Details

Date: 29 March 2023
Orbit: 783 x 794 km, 67.1° (Epoch: 29 May)

Event Time Altitude Azimuth Distance (km) Brightness Sun altitude
Rises 23:12:16 0° 322° (NW) 3,298 14.0 -27.0°
Reaches altitude 10° 23:16:06 10° 349° (N) 2,370 12.7 -27.5°
Maximum altitude 23:18:41 13° 18° (NNE) 2,139 12.1 -27.8°
Drops below altitude 10° 23:21:17 10° 47° (NE) 2,370 12.0 -28.1°
Enters shadow 23:21:20 10° 47° (NE) 2,376 12.0 -28.1°
